Location: Guilderland
(42.7045°N, 73.9115°W)
Time: 17:43:44
(UTC+00:00)

H-2A R/B - Pass Details

Date: 24 January 2020
Orbit: 503 x 540 km, 97.3° (Epoch: 21 February)

Event Time Altitude Azimuth Distance (km) Brightness Sun altitude
Rises 22:28:12 0° 174° (S) 2,650 6.5 -5.9°
Reaches altitude 10° 22:30:18 10° 177° (S) 1,771 5.7 -6.3°
Maximum altitude 22:34:06 64° 259° (W) 595 3.3 -7.0°
Drops below altitude 10° 22:37:58 10° 342° (NNW) 1,803 5.5 -7.6°
Sets 22:40:08 0° 345° (NNW) 2,703 6.3 -8.0°
